Theta_e
315 314 314 314 314 315 315 315 314 308 309 311 311 309 305 305 305 305 305 304 304 304 304 304 306 308 310 311 311 310 307 306 307 306 307 306 307 307 310 311 312 313 314 314 317
316 315 314 314 315 315 314 314 312 309 308 309 309 309 305 305 305 306 303 303 303 304 305 305 308 309 309 309 309 307 305 307 305 304 305 305 306 306 308 309 311 313 314 314 317
315 315 315 315 315 314 314 312 309 308 307 308 308 308 305 304 306 304 304 303 303 303 305 306 309 308 308 308 306 306 305 305 304 306 305 304 306 305 306 307 308 310 311 315 319
315 315 315 315 314 313 314 311 307 306 305 307 308 306 305 307 307 304 304 303 303 304 306 307 309 308 306 305 307 305 305 305 305 304 304 304 304 304 305 306 307 308 309 315 319
314 315 314 314 314 313 314 311 306 305 305 306 308 305 306 306 303 303 303 303 303 304 306 307 307 307 305 306 306 305 304 304 304 305 305 305 303 304 304 305 307 309 312 316 318
313 315 313 314 314 313 313 310 305 304 305 305 305 306 307 304 303 303 303 303 303 304 306 306 306 307 306 304 304 304 304 304 305 305 304 304 303 304 303 303 306 311 314 316 317
313 313 313 314 313 313 313 308 308 304 304 304 305 306 306 304 303 303 303 303 303 304 305 306 306 306 305 304 304 304 304 303 304 304 304 304 304 303 303 304 308 312 314 315 315
313 312 313 313 312 313 310 308 310 310 304 304 305 305 304 304 303 303 304 303 303 304 305 306 306 306 305 304 304 301 300 302 303 302 304 303 304 303 303 303 304 308 311 312 313
311 312 312 312 312 312 308 309 310 311 306 306 306 306 305 304 303 304 304 304 304 304 305 305 305 305 306 302 301 302 303 309 305 302 301 304 304 304 304 303 303 303 304 306 306
311 312 312 312 313 309 309 308 306 311 310 307 306 307 305 304 304 305 305 306 305 305 307 307 306 301 299 301 303 306 308 306 307 303 301 303 303 302 304 303 303 302 302 303 303
312 312 312 311 310 309 308 308 308 305 305 303 303 304 304 304 305 305 305 306 306 307 306 306 302 302 302 302 303 304 306 306 305 300 300 302 299 301 303 302 302 302 302 302 303
312 312 311 310 309 307 305 306 305 304 303 304 304 304 304 304 305 306 306 306 306 303 304 304 304 302 302 302 303 304 306 304 302 300 300 298 299 300 300 300 301 302 302 302 302
311 312 311 311 306 305 305 305 305 304 303 302 303 304 304 304 304 304 305 306 302 301 300 303 302 302 302 299 304 300 302 301 301 299 296 294 301 299 299 298 299 300 301 302 302
312 312 311 309 307 306 304 303 303 305 296 300 303 304 303 305 303 303 304 304 303 300 300 300 299 301 301 299 300 305 297 299 299 297 299 293 300 297 295 295 296 299 300 300 301
313 312 311 308 306 306 305 305 305 306 298 299 302 304 303 303 302 303 304 304 301 299 299 300 299 299 299 298 298 301 298 299 296 291 292 293 293 296 293 296 296 297 298 299 300
311 311 308 308 306 305 305 306 306 297 296 296 301 301 301 301 300 301 302 303 301 299 298 298 298 297 298 298 298 297 295 293 291 289 292 285 290 298 297 297 296 297 298 298 299
306 306 306 305 305 305 306 306 299 298 294 297 300 300 299 299 299 298 298 297 298 295 295 295 299 297 296 299 298 294 291 292 294 292 296 277 292 299 298 296 296 295 297 298 298
308 308 306 304 304 304 304 299 297 289 292 299 300 299 300 297 297 296 299 297 296 295 291 290 294 294 295 296 298 296 290 293 290 293 293 279 293 298 296 295 295 296 297 298 298
311 310 305 303 303 302 303 296 295 295 301 301 300 295 294 297 296 295 297 297 297 296 295 291 294 295 295 294 294 294 290 290 284 274 286 290 291 294 294 291 294 295 297 298 298
311 309 304 303 303 302 299 295 294 298 300 300 300 295 292 291 297 292 294 298 298 297 294 295 293 289 295 295 292 292 291 292 288 290 289 289 283 296 291 290 290 293 297 298 298
305 305 304 304 304 304 296 287 291 299 300 300 300 293 298 294 296 293 297 297 297 296 295 289 288 292 293 288 288 290 289 289 288 290 291 289 295 289 286 283 286 294 296 296 295
302 303 303 303 303 291 288 287 298 300 300 300 299 297 294 295 295 290 297 295 298 296 297 296 292 291 292 292 292 293 291 293 292 288 286 290 292 290 283 288 291 294 294 294 294
302 302 301 303 297 287 291 295 298 299 299 299 298 298 295 290 292 296 297 298 299 297 297 295 288 288 294 292 290 291 292 290 286 290 289 291 295 284 287 289 292 292 294 294 294
302 299 300 302 297 295 289 292 295 298 299 299 299 298 296 289 292 290 296 297 298 297 299 296 293 290 293 291 285 291 292 292 289 286 293 292 296 295 292 289 293 293 292 293 293
301 298 296 293 294 295 295 294 295 295 298 298 294 297 294 291 291 289 295 295 297 298 297 294 289 290 288 285 283 288 290 289 290 291 291 295 286 293 292 290 291 291 292 292 293
299 299 297 297 296 297 296 295 294 293 297 297 294 296 294 291 294 295 295 295 295 296 295 292 287 284 287 287 289 290 291 291 290 291 286 291 291 284 289 289 290 291 291 291 291
299 299 299 295 295 294 294 295 296 296 297 296 297 295 296 296 296 296 296 295 294 294 294 287 283 281 286 282 283 288 286 287 286 281 285 287 286 284 286 288 289 290 290 290 289
Wind_Speed
13 12 11 12 14 15 16 15 15 14 12 9 7 5 5 6 6 6 6 10 8 6 5 3 4 6 7 5 4 3 4 1 1 3 2 7 3 3 3 1 1 1 0 1 7
12 11 11 12 13 14 14 15 14 13 11 9 6 4 2 4 3 12 11 9 7 5 5 3 6 7 4 3 3 5 3 2 0 0 1 5 3 5 1 2 1 2 2 4 8
16 10 9 10 12 13 15 15 14 12 11 8 5 3 3 3 4 12 12 9 6 4 4 5 6 5 4 3 4 3 3 1 2 3 2 5 1 5 3 2 2 5 7 4 11
10 9 9 10 11 13 13 15 13 12 11 7 5 4 4 3 2 10 10 8 6 4 4 5 4 3 3 3 3 4 3 2 1 3 2 2 6 3 2 1 5 5 7 8 12
9 9 10 9 10 12 12 14 12 11 9 7 4 4 4 7 8 9 9 7 5 4 5 5 5 3 4 4 3 3 1 3 1 3 2 3 1 3 4 4 4 4 6 8 9
7 7 9 9 10 12 11 11 11 11 8 7 6 5 5 8 10 10 9 7 6 5 7 6 5 7 7 4 4 2 3 2 3 6 2 2 2 2 1 3 4 4 7 8 9
6 8 9 9 12 13 9 6 9 10 8 7 7 12 16 8 11 11 8 8 7 7 8 8 7 2 3 3 4 3 1 2 8 8 2 4 1 4 5 2 4 7 8 9 9
6 8 8 9 11 10 8 7 7 8 8 6 5 7 8 10 10 8 8 10 8 8 8 8 7 7 5 5 5 4 4 4 2 9 2 2 6 3 4 5 7 8 10 10 11
8 10 10 10 8 6 7 8 7 6 10 8 8 5 5 7 10 12 10 8 9 9 8 6 4 6 4 4 4 7 1 2 5 4 4 1 5 4 4 7 10 10 10 10 11
10 11 11 9 6 7 5 6 19 6 2 5 10 5 12 10 12 12 7 8 6 5 4 3 5 4 5 5 2 2 2 3 4 5 5 4 10 7 9 8 12 12 11 10 10
10 13 13 11 9 7 8 2 2 8 26 14 10 8 14 6 14 13 7 4 5 7 5 6 7 4 4 4 2 1 2 3 2 4 5 3 7 13 19 16 16 15 13 12 11
9 11 11 11 12 11 11 9 10 7 12 17 16 13 14 11 6 18 9 5 8 4 7 6 4 4 4 4 4 5 2 4 5 4 3 6 13 13 14 11 12 14 14 13 13
9 8 8 10 12 12 11 13 9 5 5 11 16 15 13 11 10 18 15 6 8 6 7 6 3 7 3 6 4 3 2 3 4 7 3 7 7 7 3 3 7 11 12 14 14
6 5 6 8 6 8 8 7 6 5 5 12 12 10 13 3 6 16 12 6 8 2 4 6 7 4 5 5 4 2 4 3 4 5 3 6 4 7 5 9 7 12 15 14 12
6 5 6 10 6 7 4 3 2 1 6 10 8 9 8 7 5 11 14 10 5 4 4 2 6 6 8 2 3 2 4 3 3 4 4 8 4 9 5 6 6 10 13 14 13
10 6 5 6 8 6 4 2 2 6 1 7 8 10 6 10 7 11 6 8 5 4 7 2 2 3 2 2 0 2 1 5 4 3 3 3 3 6 3 3 5 10 18 12 14
8 7 7 7 5 4 4 2 5 7 3 7 4 6 1 6 7 9 5 7 4 5 5 5 3 3 4 3 2 6 6 4 6 4 4 3 2 9 6 4 4 14 22 16 12
5 6 8 8 7 6 5 5 9 3 5 2 2 2 5 7 5 8 3 4 6 5 3 3 7 5 8 3 2 5 4 4 5 2 5 3 5 5 2 9 13 13 14 14 10
1 5 7 9 9 8 2 6 7 6 1 3 2 6 5 3 1 4 5 2 2 3 4 3 4 2 2 2 2 1 3 3 7 1 3 3 7 10 2 5 13 13 14 16 12
0 3 6 9 9 7 5 3 2 1 1 0 2 2 1 5 4 5 2 2 1 2 1 3 4 1 4 2 6 4 3 4 3 3 5 4 6 5 6 7 8 18 22 20 20
3 3 5 8 7 4 4 5 3 3 1 1 2 1 2 1 0 1 1 1 1 2 3 4 3 4 2 2 4 2 2 4 3 3 4 2 5 7 6 4 6 14 21 27 31
3 3 6 6 3 5 2 5 3 3 1 1 1 2 3 3 1 0 1 4 1 2 2 1 4 3 8 2 1 2 5 4 4 5 2 1 7 3 6 6 7 18 34 29 25
3 2 4 4 3 2 0 2 1 2 2 3 2 1 2 3 3 1 0 1 1 1 2 4 2 4 9 3 3 2 4 3 3 2 7 3 6 1 3 7 21 27 32 32 30
2 2 1 4 6 7 4 1 1 1 1 1 2 3 2 3 1 2 1 2 2 1 2 2 2 7 6 7 3 3 4 5 5 3 4 8 21 17 12 12 30 35 33 29 29
1 1 1 1 2 5 3 5 3 2 2 2 3 3 4 0 1 2 3 2 1 2 2 3 4 1 5 5 3 5 10 8 10 10 5 23 5 15 14 12 22 28 34 35 33
2 3 3 3 4 4 1 6 7 3 5 3 3 2 4 4 4 2 2 3 2 1 3 1 2 2 5 3 3 6 17 8 12 10 8 16 18 4 14 18 29 37 38 35 39
4 4 2 2 3 3 4 5 6 7 4 1 3 3 2 5 6 8 9 6 2 6 5 3 4 3 6 4 7 7 8 5 3 4 6 4 6 9 9 23 29 35 29 36 43
Wind_Direction
349 350 355 356 356 354 355 355 355 358 359 2 358 8 58 70 50 35 23 14 19 17 30 65 101 108 92 79 74 83 63 125 218 154 324 3 32 37 45 91 166 43 244 208 194
334 336 346 351 355 356 1 359 355 355 359 358 10 5 48 79 49 37 20 5 11 31 50 80 100 110 72 74 42 68 87 201 95 95 321 337 21 345 29 35 286 281 289 241 190
347 339 341 358 357 359 358 2 1 356 2 358 6 21 38 81 75 15 13 6 15 47 77 90 104 97 80 86 39 77 121 191 36 17 347 334 44 355 355 30 337 306 311 220 192
347 356 9 4 4 360 6 5 3 1 3 7 4 56 75 54 75 7 11 14 23 49 93 99 99 67 73 77 66 90 75 83 81 7 19 359 335 352 338 279 302 287 267 218 199
346 3 5 3 1 359 1 1 3 6 11 21 36 82 90 78 28 21 21 26 43 68 86 95 76 83 96 102 100 76 100 70 44 20 14 338 313 281 297 295 294 267 201 198 202
348 360 360 358 356 349 341 357 9 14 21 39 53 77 88 75 24 22 27 34 59 81 82 82 88 93 95 69 79 73 94 76 28 6 19 5 263 314 208 317 238 196 194 198 210
352 360 356 358 352 353 353 11 12 24 33 52 74 86 72 63 32 28 36 48 61 88 92 89 87 85 94 90 63 62 44 10 18 345 335 323 204 227 296 270 213 201 204 211 218
5 357 358 355 352 8 26 26 23 29 38 57 70 77 80 46 42 47 50 56 70 93 96 93 92 79 58 97 37 47 45 16 346 7 321 29 268 244 293 242 228 218 218 222 230
12 3 357 351 3 26 37 44 21 25 57 58 57 88 55 28 36 43 54 71 80 93 94 96 84 74 57 58 21 12 150 314 316 47 310 336 263 221 278 251 247 236 233 232 235
17 12 358 357 15 41 61 66 59 57 19 48 36 66 28 5 22 28 43 64 81 92 93 65 65 68 33 50 200 282 359 296 260 338 345 292 269 281 272 274 259 247 236 233 233
31 23 53 57 50 32 12 101 58 55 61 62 50 72 24 28 36 26 36 43 52 56 38 18 65 51 347 334 340 325 292 294 314 7 332 314 291 288 291 275 264 256 245 242 246
32 43 56 49 37 27 57 86 76 108 69 56 55 47 30 28 28 31 36 46 41 43 344 31 73 335 294 5 62 33 342 314 296 11 346 3 300 279 275 263 263 265 259 253 254
22 46 65 41 46 60 73 83 76 80 78 26 28 23 18 22 37 13 24 34 58 46 17 86 342 335 53 31 33 47 37 348 257 318 87 322 309 322 334 317 275 256 255 246 250
35 45 50 21 44 51 66 61 42 30 74 334 352 14 359 34 46 18 23 39 38 96 47 69 341 18 52 70 5 28 334 312 344 28 292 7 288 297 333 308 272 268 254 255 257
58 88 49 38 41 51 60 77 44 20 53 317 328 344 1 65 334 14 28 56 70 22 68 279 10 18 49 322 336 280 30 31 63 78 43 1 79 273 352 324 358 1 317 267 264
89 85 33 28 38 51 58 34 5 44 287 336 333 353 14 21 17 353 29 61 79 87 45 125 58 63 221 265 191 290 35 43 56 79 28 291 82 286 289 320 316 320 337 318 262
73 63 37 28 31 30 356 332 40 88 345 309 330 2 72 348 1 22 35 20 51 56 2 355 3 342 13 320 13 41 45 348 358 10 223 303 13 247 300 294 276 317 328 328 282
59 37 21 13 10 352 339 51 67 249 237 5 314 314 50 360 19 354 50 41 32 49 83 90 336 9 357 50 319 38 118 145 232 265 275 12 234 241 246 300 314 315 322 329 304
350 352 1 3 356 345 342 51 182 197 357 320 317 53 336 26 125 57 38 76 35 33 111 63 295 337 13 345 61 287 47 156 99 91 39 278 287 309 325 37 19 2 7 2 334
328 338 348 355 352 353 69 151 121 237 346 354 106 102 331 310 26 43 359 270 106 53 113 181 353 269 295 359 43 117 151 33 9 341 306 305 274 243 326 332 340 10 16 4 343
337 320 351 354 350 26 109 208 221 193 143 44 155 129 212 260 354 269 252 202 184 121 81 131 97 288 24 182 183 28 19 43 119 130 202 270 255 213 219 227 286 347 346 338 332
346 350 349 354 19 56 90 190 147 168 173 182 130 117 177 158 252 62 262 202 227 155 127 197 136 257 228 140 148 171 190 167 127 268 234 191 270 190 216 265 304 330 332 338 337
342 332 348 5 99 351 354 329 227 158 174 172 155 74 109 169 28 248 244 161 208 169 168 174 318 356 337 19 3 205 207 145 115 79 210 149 260 31 211 317 338 328 336 335 335
314 21 44 60 88 128 134 252 282 204 193 193 127 130 143 30 29 248 262 158 175 174 129 147 149 177 204 214 142 263 207 193 147 147 237 223 272 289 318 341 334 335 336 339 340
312 103 123 269 9 102 112 139 136 231 216 208 355 209 161 92 332 239 242 247 130 161 109 120 201 280 260 238 219 253 254 204 199 229 215 276 258 286 317 317 324 332 340 336 339
241 174 138 87 114 123 358 210 177 240 155 242 173 170 170 178 197 244 171 217 216 169 146 44 239 109 294 341 298 268 266 239 233 251 259 279 282 323 329 343 340 337 335 339 339
223 202 171 150 133 105 221 183 210 161 195 164 184 126 212 246 262 270 247 251 195 166 165 103 128 77 262 343 329 303 247 173 202 216 164 223 248 311 337 343 334 325 340 338 334